Tracking 18980 objects as of 22-Feb-2018
HD Live streaming from Space Station
objects crossing your sky now

FENGYUN 1C DEB

Track FENGYUN 1C DEB now!
10-day predictions


NORAD ID: 35186
Int'l Code: 1999-025DNS
Perigee: 757.9 km
Apogee: 845.4 km
Inclination: 99.6 °
Period: 100.8 minutes
Semi major axis: 7172 km
RCS: 0.0088 m2 (small)
Launch date: May 10, 1999
Source: People's Republic of China (PRC)
Launch site: Taiyaun Space Center, China (TSC)

Note: This is SATELLITE DEBRIS
aabbcc
Your satellite tracking list
Your tracking list is empty




NASA's NSSDC Master Catalog

Two Line Element Set (TLE):
1 35186U 99025DNS 18050.40085088  .00000490  00000-0  20974-3 0  9993
2 35186  99.5923 112.8162 0060981 359.0727   1.0329 14.29164272527669
Source of the keplerian elements: AFSPC